Location: Allison's Woods
(35.8809°N, 80.8140°W)
Time: 10:12:58
(UTC-04:00)

Iridium 39 - Visible Passes

Search period start: 30 August 2014 00:00
Search period end: 09 September 2014 00:00
Orbit: 776 x 779 km, 86.4° (Epoch: 29 August)

Date Brightness Start Highest point End Pass type
(mag) Time Alt. Az. Time Alt. Az. Time Alt. Az.
30 Aug 6.9 20:49:24 10° NNW 20:54:28 54° W 20:59:30 10° SSW visible
31 Aug 6.0 20:15:46 10° N 20:21:00 79° E 20:26:11 10° S visible
01 Sep 8.8 21:24:10 10° NW 21:27:45 19° W 21:31:20 10° SW visible
02 Sep 7.7 20:49:45 10° NNW 20:54:28 36° W 20:59:10 10° SSW visible
03 Sep 6.4 20:15:53 10° N 20:21:04 70° W 20:26:14 10° S visible
04 Sep 9.2 21:25:26 10° NW 21:27:39 13° WNW 21:29:51 10° WSW visible
05 Sep 8.5 20:50:17 10° NNW 20:54:26 25° W 20:58:34 10° SW visible
06 Sep 7.3 20:16:08 10° NNW 20:21:07 47° W 20:26:04 10° SSW visible
08 Sep 9.1 20:51:09 10° NW 20:54:22 17° W 20:57:34 10° WSW visible
